Time,TemperatureF,DewpointF,PressureIn,WindDirection,WindDirectionDegrees,WindSpeedMPH,WindSpeedGustMPH,Humidity,HourlyPrecipIn,Conditions,Clouds,dailyrainin,SoftwareType,DateUTC
2015-02-28 00:23:00,11.0,-1.0,-100.00,NNE,15,4.0,6.0,56,0.00,,,-99.99,,2015-02-28 05:23:00,
2015-02-28 00:52:00,10.0,-1.0,-100.00,NNE,15,3.0,5.0,58,0.00,,,-99.99,,2015-02-28 05:52:00,
2015-02-28 01:23:00,8.0,-2.0,-100.00,NNW,330,3.0,6.0,62,0.00,,,-99.99,,2015-02-28 06:23:00,
2015-02-28 01:53:00,8.0,-2.0,-100.00,North,350,4.0,6.0,62,0.00,,,-99.99,,2015-02-28 06:53:00,
2015-02-28 02:23:00,7.0,-2.0,-100.00,NNE,15,1.0,3.0,64,0.00,,,-99.99,,2015-02-28 07:23:00,
2015-02-28 02:33:00,7.0,-2.0,-100.00,NNE,15,1.0,3.0,64,0.00,,,-99.99,,2015-02-28 07:33:00,
2015-02-28 02:43:00,7.0,-2.0,-100.00,NNE,15,1.0,3.0,64,0.00,,,-99.99,,2015-02-28 07:43:00,
2015-02-28 03:12:00,7.0,-4.0,-100.00,North,5,2.0,4.0,60,0.00,,,-99.99,,2015-02-28 08:12:00,
2015-02-28 03:22:00,7.0,-4.0,-100.00,North,5,2.0,4.0,60,0.00,,,-99.99,,2015-02-28 08:22:00,
2015-02-28 03:32:00,7.0,-4.0,-100.00,North,5,2.0,4.0,60,0.00,,,-99.99,,2015-02-28 08:32:00,
2015-02-28 03:53:00,6.0,-4.0,-100.00,NNE,15,1.0,3.0,64,0.00,,,-99.99,,2015-02-28 08:53:00,
2015-02-28 04:22:00,6.0,-3.0,-100.00,NNE,20,2.0,4.0,64,0.00,,,-99.99,,2015-02-28 09:22:00,
2015-02-28 04:53:00,5.0,-3.0,-100.00,NNE,20,2.0,5.0,66,0.00,,,-99.99,,2015-02-28 09:53:00,
2015-02-28 05:23:00,6.0,-3.0,-100.00,NNE,25,3.0,4.0,66,0.00,,,-99.99,,2015-02-28 10:23:00,
2015-02-28 05:53:00,6.0,-3.0,-100.00,NE,40,2.0,4.0,66,0.00,,,-99.99,,2015-02-28 10:53:00,
2015-02-28 06:23:00,6.0,-3.0,-100.00,NNE,25,2.0,4.0,65,0.00,,,-99.99,,2015-02-28 11:23:00,
2015-02-28 06:53:00,6.0,-3.0,-100.00,NE,45,4.0,6.0,66,0.00,,,-99.99,,2015-02-28 11:53:00,
2015-02-28 07:23:00,6.0,-3.0,-100.00,NNE,30,3.0,6.0,64,0.00,,,-99.99,,2015-02-28 12:23:00,
2015-02-28 07:53:00,7.0,-3.0,-100.00,NE,40,3.0,6.0,64,0.00,,,-99.99,,2015-02-28 12:53:00,
2015-02-28 08:23:00,8.0,-2.0,-100.00,NE,40,2.0,6.0,63,0.00,,,-99.99,,2015-02-28 13:23:00,
2015-02-28 08:53:00,9.0,-1.0,-100.00,NE,45,3.0,6.0,60,0.00,,,-99.99,,2015-02-28 13:53:00,